Location: Bacharowice
(49.9333°N, 19.5833°E)
Time: 06:44:11
(UTC+00:00)

Cosmos 1908 Rocket - Pass Details

Date: 05 October 2021
Orbit: 605 x 633 km, 82.5° (Epoch: 25 October)

Event Time Altitude Azimuth Distance (km) Brightness Sun altitude
Rises 17:56:26 0° 241° (WSW) 2,914 7.8 -17.7°
Reaches altitude 10° 17:59:44 10° 267° (W) 2,007 7.3 -18.2°
Maximum altitude 18:02:02 14° 298° (WNW) 1,767 7.0 -18.5°
Drops below altitude 10° 18:04:19 10° 329° (NNW) 2,006 6.8 -18.9°
Sets 18:07:38 0° 356° (N) 2,911 7.3 -19.4°
